QPF
0.00 0.00 0.00 0.00 0.00 0.00 0.00 0.00 0.00 0.00 0.00 0.00 0.00 0.00 0.00 0.00 0.00 0.00 0.01 0.01 0.00 0.00 0.00 0.00 0.00 0.01 0.02 0.01 0.00 0.01 0.00 0.00 0.01 0.02 0.05 0.07 0.07 0.06 0.05 0.06 0.06 0.05 0.04
0.00 0.00 0.00 0.00 0.00 0.00 0.00 0.00 0.00 0.00 0.00 0.00 0.00 0.00 0.00 0.00 0.00 0.00 0.00 0.00 0.01 0.01 0.00 0.01 0.00 0.00 0.01 0.01 0.00 0.00 0.01 0.01 0.01 0.01 0.03 0.05 0.06 0.06 0.05 0.04 0.04 0.04 0.03
0.00 0.00 0.00 0.00 0.00 0.00 0.00 0.00 0.00 0.00 0.00 0.00 0.00 0.00 0.00 0.00 0.00 0.00 0.00 0.00 0.01 0.01 0.01 0.01 0.00 0.00 0.00 0.00 0.01 0.01 0.01 0.01 0.01 0.01 0.01 0.02 0.03 0.04 0.04 0.03 0.03 0.02 0.02
0.00 0.00 0.00 0.00 0.00 0.00 0.00 0.00 0.00 0.00 0.00 0.00 0.00 0.00 0.00 0.00 0.00 0.00 0.00 0.01 0.00 0.00 0.00 0.00 0.01 0.01 0.01 0.01 0.01 0.01 0.01 0.01 0.01 0.01 0.01 0.01 0.02 0.03 0.02 0.02 0.02 0.02 0.01
0.00 0.00 0.00 0.00 0.00 0.00 0.00 0.00 0.00 0.00 0.00 0.00 0.00 0.00 0.00 0.00 0.00 0.00 0.00 0.00 0.00 0.00 0.00 0.00 0.00 0.00 0.00 0.00 0.01 0.01 0.01 0.01 0.01 0.01 0.01 0.01 0.02 0.03 0.02 0.01 0.01 0.02 0.01
0.00 0.00 0.00 0.00 0.00 0.00 0.00 0.00 0.00 0.00 0.00 0.00 0.00 0.00 0.00 0.00 0.00 0.00 0.00 0.00 0.00 0.00 0.00 0.00 0.00 0.00 0.00 0.00 0.00 0.00 0.01 0.01 0.01 0.01 0.01 0.01 0.02 0.02 0.01 0.01 0.01 0.01 0.01
0.00 0.00 0.00 0.00 0.00 0.00 0.00 0.00 0.00 0.00 0.00 0.00 0.00 0.00 0.00 0.00 0.00 0.00 0.00 0.00 0.00 0.00 0.00 0.00 0.00 0.00 0.00 0.01 0.01 0.00 0.01 0.00 0.01 0.01 0.01 0.01 0.01 0.01 0.00 0.00 0.00 0.01 0.01
0.00 0.00 0.00 0.00 0.00 0.00 0.00 0.00 0.00 0.00 0.00 0.00 0.00 0.00 0.00 0.00 0.00 0.00 0.00 0.00 0.00 0.00 0.00 0.00 0.00 0.00 0.00 0.00 0.01 0.01 0.01 0.00 0.00 0.00 0.00 0.00 0.01 0.01 0.01 0.00 0.00 0.01 0.01
0.00 0.00 0.00 0.00 0.00 0.00 0.00 0.00 0.00 0.00 0.00 0.00 0.00 0.00 0.00 0.00 0.00 0.00 0.00 0.00 0.00 0.00 0.00 0.00 0.00 0.00 0.00 0.00 0.00 0.01 0.01 0.00 0.00 0.01 0.00 0.00 0.00 0.01 0.00 0.00 0.00 0.00 0.00
0.00 0.00 0.00 0.00 0.00 0.00 0.00 0.00 0.00 0.00 0.00 0.00 0.00 0.00 0.00 0.00 0.00 0.00 0.00 0.00 0.00 0.00 0.00 0.00 0.00 0.00 0.00 0.00 0.00 0.00 0.01 0.00 0.00 0.00 0.00 0.00 0.00 0.00 0.00 0.00 0.00 0.00 0.00
0.00 0.00 0.00 0.00 0.00 0.00 0.00 0.00 0.00 0.00 0.00 0.00 0.00 0.00 0.00 0.00 0.00 0.00 0.00 0.00 0.00 0.00 0.00 0.00 0.00 0.00 0.00 0.00 0.00 0.00 0.01 0.01 0.01 0.01 0.00 0.00 0.00 0.00 0.00 0.01 0.01 0.01 0.01
0.00 0.00 0.00 0.00 0.00 0.00 0.00 0.00 0.00 0.00 0.00 0.00 0.00 0.00 0.00 0.00 0.00 0.00 0.00 0.00 0.00 0.00 0.00 0.00 0.00 0.00 0.00 0.00 0.00 0.00 0.00 0.00 0.00 0.01 0.01 0.01 0.01 0.00 0.00 0.00 0.00 0.01 0.00
0.00 0.00 0.00 0.00 0.00 0.00 0.00 0.00 0.00 0.00 0.00 0.00 0.00 0.00 0.00 0.00 0.00 0.00 0.00 0.00 0.00 0.00 0.00 0.00 0.00 0.00 0.00 0.00 0.00 0.00 0.00 0.00 0.01 0.02 0.01 0.00 0.00 0.00 0.00 0.00 0.00 0.00 0.00
0.00 0.00 0.00 0.00 0.00 0.00 0.00 0.00 0.00 0.00 0.00 0.00 0.00 0.00 0.00 0.00 0.00 0.00 0.00 0.00 0.00 0.00 0.00 0.00 0.00 0.00 0.00 0.00 0.00 0.00 0.00 0.00 0.00 0.01 0.01 0.01 0.00 0.00 0.00 0.00 0.00 0.00 0.00
0.00 0.00 0.00 0.00 0.00 0.00 0.00 0.00 0.00 0.00 0.00 0.00 0.00 0.00 0.00 0.00 0.00 0.00 0.00 0.00 0.00 0.00 0.00 0.00 0.00 0.00 0.00 0.00 0.00 0.00 0.00 0.00 0.00 0.00 0.00 0.00 0.00 0.00 0.00 0.00 0.00 0.00 0.00
0.00 0.00 0.00 0.00 0.00 0.00 0.00 0.00 0.00 0.00 0.00 0.00 0.00 0.00 0.00 0.00 0.00 0.00 0.00 0.00 0.00 0.00 0.00 0.00 0.00 0.00 0.00 0.00 0.00 0.00 0.00 0.00 0.00 0.00 0.00 0.00 0.00 0.00 0.00 0.00 0.00 0.00 0.00
0.00 0.00 0.00 0.00 0.00 0.00 0.00 0.00 0.00 0.00 0.00 0.00 0.00 0.00 0.00 0.00 0.00 0.00 0.00 0.00 0.00 0.00 0.00 0.00 0.00 0.00 0.00 0.00 0.00 0.00 0.00 0.00 0.00 0.00 0.00 0.00 0.00 0.00 0.00 0.00 0.00 0.00 0.00
0.00 0.00 0.00 0.00 0.00 0.00 0.00 0.00 0.00 0.00 0.00 0.00 0.00 0.00 0.00 0.00 0.00 0.00 0.00 0.00 0.00 0.00 0.00 0.00 0.00 0.00 0.00 0.00 0.00 0.00 0.00 0.00 0.00 0.00 0.00 0.00 0.00 0.00 0.00 0.00 0.00 0.00 0.00
0.00 0.00 0.00 0.00 0.00 0.00 0.00 0.00 0.00 0.00 0.00 0.00 0.00 0.00 0.00 0.00 0.00 0.00 0.00 0.00 0.00 0.00 0.00 0.00 0.00 0.00 0.00 0.00 0.00 0.00 0.00 0.00 0.00 0.00 0.00 0.00 0.00 0.00 0.00 0.00 0.00 0.00 0.00
0.01 0.01 0.01 0.01 0.01 0.00 0.00 0.00 0.00 0.00 0.00 0.00 0.00 0.00 0.00 0.00 0.00 0.00 0.00 0.00 0.00 0.00 0.00 0.00 0.00 0.00 0.00 0.00 0.00 0.00 0.00 0.00 0.00 0.00 0.00 0.00 0.00 0.00 0.00 0.00 0.00 0.00 0.00
0.01 0.01 0.01 0.01 0.01 0.01 0.01 0.00 0.00 0.00 0.00 0.00 0.00 0.00 0.00 0.00 0.00 0.00 0.00 0.00 0.00 0.00 0.00 0.00 0.00 0.00 0.00 0.00 0.00 0.00 0.00 0.00 0.00 0.00 0.00 0.00 0.00 0.00 0.00 0.00 0.00 0.00 0.00
0.02 0.02 0.01 0.01 0.01 0.01 0.01 0.00 0.00 0.01 0.01 0.01 0.01 0.00 0.00 0.00 0.00 0.00 0.00 0.00 0.00 0.00 0.00 0.00 0.00 0.00 0.00 0.00 0.00 0.00 0.00 0.00 0.00 0.00 0.00 0.00 0.00 0.00 0.00 0.00 0.00 0.00 0.00
0.02 0.02 0.02 0.02 0.02 0.02 0.02 0.01 0.01 0.01 0.01 0.01 0.01 0.01 0.00 0.00 0.00 0.00 0.00 0.00 0.00 0.00 0.00 0.00 0.00 0.00 0.00 0.00 0.00 0.00 0.00 0.00 0.00 0.00 0.00 0.00 0.00 0.00 0.00 0.00 0.00 0.00 0.00
0.02 0.02 0.03 0.03 0.03 0.04 0.03 0.02 0.01 0.01 0.01 0.01 0.01 0.01 0.00 0.00 0.00 0.00 0.00 0.00 0.00 0.00 0.00 0.00 0.00 0.00 0.00 0.00 0.00 0.00 0.00 0.00 0.00 0.00 0.00 0.00 0.00 0.00 0.00 0.00 0.00 0.00 0.00
0.03 0.03 0.03 0.04 0.04 0.04 0.03 0.03 0.02 0.01 0.01 0.01 0.01 0.01 0.01 0.01 0.01 0.00 0.00 0.00 0.00 0.00 0.00 0.00 0.00 0.00 0.00 0.00 0.00 0.00 0.00 0.00 0.00 0.00 0.00 0.00 0.00 0.00 0.00 0.00 0.00 0.00 0.00
0.03 0.04 0.04 0.04 0.04 0.04 0.03 0.03 0.03 0.03 0.02 0.02 0.02 0.01 0.01 0.01 0.01 0.01 0.01 0.00 0.00 0.00 0.00 0.00 0.00 0.00 0.00 0.00 0.00 0.00 0.00 0.00 0.00 0.00 0.00 0.00 0.00 0.00 0.00 0.00 0.00 0.00 0.00
MSLP
1010.14 1010.56 1010.98 1011.39 1011.73 1012.00 1012.19 1012.33 1012.43 1012.53 1012.64 1012.79 1012.97 1013.17 1013.38 1013.58 1013.73 1013.84 1013.91 1013.94 1013.96 1013.98 1014.02 1014.09 1014.20 1014.34 1014.48 1014.62 1014.73 1014.80 1014.81 1014.77 1014.66 1014.50 1014.29 1014.05 1013.78 1013.51 1013.25 1012.99 1012.77 1012.58 1012.42
1009.57 1010.01 1010.46 1010.89 1011.27 1011.57 1011.79 1011.95 1012.07 1012.18 1012.31 1012.46 1012.65 1012.87 1013.09 1013.31 1013.50 1013.64 1013.73 1013.79 1013.81 1013.82 1013.84 1013.88 1013.95 1014.06 1014.19 1014.33 1014.46 1014.58 1014.66 1014.69 1014.67 1014.59 1014.45 1014.25 1014.02 1013.75 1013.47 1013.20 1012.95 1012.71 1012.52
1008.98 1009.45 1009.93 1010.39 1010.80 1011.12 1011.37 1011.55 1011.69 1011.80 1011.93 1012.08 1012.26 1012.48 1012.71 1012.94 1013.15 1013.32 1013.44 1013.52 1013.56 1013.58 1013.60 1013.63 1013.68 1013.77 1013.89 1014.03 1014.19 1014.35 1014.48 1014.58 1014.62 1014.61 1014.53 1014.38 1014.18 1013.93 1013.66 1013.38 1013.11 1012.85 1012.62
1008.37 1008.86 1009.37 1009.86 1010.29 1010.64 1010.91 1011.11 1011.26 1011.38 1011.50 1011.64 1011.81 1012.02 1012.24 1012.47 1012.69 1012.88 1013.03 1013.13 1013.20 1013.24 1013.27 1013.31 1013.37 1013.46 1013.58 1013.74 1013.91 1014.09 1014.26 1014.40 1014.50 1014.53 1014.50 1014.40 1014.24 1014.02 1013.77 1013.50 1013.23 1012.96 1012.71
1007.73 1008.23 1008.75 1009.25 1009.71 1010.08 1010.37 1010.59 1010.76 1010.89 1011.01 1011.15 1011.31 1011.50 1011.71 1011.93 1012.14 1012.34 1012.50 1012.63 1012.72 1012.79 1012.85 1012.92 1012.99 1013.10 1013.23 1013.40 1013.59 1013.78 1013.97 1014.14 1014.27 1014.34 1014.35 1014.30 1014.18 1014.00 1013.79 1013.54 1013.28 1013.02 1012.76
1007.06 1007.54 1008.06 1008.56 1009.02 1009.41 1009.73 1009.98 1010.17 1010.33 1010.47 1010.61 1010.76 1010.94 1011.14 1011.34 1011.54 1011.73 1011.89 1012.03 1012.15 1012.25 1012.34 1012.43 1012.54 1012.67 1012.82 1013.00 1013.19 1013.40 1013.59 1013.77 1013.92 1014.02 1014.07 1014.05 1013.98 1013.86 1013.69 1013.49 1013.26 1013.02 1012.75
1006.36 1006.80 1007.28 1007.77 1008.22 1008.63 1008.97 1009.26 1009.50 1009.69 1009.87 1010.03 1010.20 1010.38 1010.56 1010.74 1010.92 1011.09 1011.24 1011.38 1011.51 1011.63 1011.75 1011.87 1012.01 1012.16 1012.34 1012.52 1012.72 1012.93 1013.13 1013.31 1013.46 1013.58 1013.65 1013.68 1013.66 1013.59 1013.48 1013.33 1013.15 1012.93 1012.67
1005.63 1006.01 1006.43 1006.88 1007.31 1007.72 1008.10 1008.43 1008.72 1008.99 1009.22 1009.43 1009.63 1009.82 1010.00 1010.16 1010.32 1010.46 1010.59 1010.72 1010.85 1010.98 1011.11 1011.26 1011.43 1011.60 1011.79 1011.99 1012.20 1012.40 1012.59 1012.77 1012.92 1013.05 1013.15 1013.21 1013.23 1013.22 1013.17 1013.07 1012.93 1012.74 1012.50
1004.92 1005.20 1005.54 1005.92 1006.32 1006.73 1007.12 1007.51 1007.87 1008.21 1008.52 1008.81 1009.06 1009.28 1009.47 1009.62 1009.76 1009.87 1009.98 1010.09 1010.20 1010.33 1010.48 1010.64 1010.83 1011.03 1011.24 1011.45 1011.66 1011.86 1012.04 1012.21 1012.37 1012.50 1012.61 1012.70 1012.76 1012.79 1012.78 1012.73 1012.63 1012.47 1012.24
1004.24 1004.40 1004.64 1004.94 1005.29 1005.67 1006.09 1006.52 1006.95 1007.37 1007.77 1008.14 1008.46 1008.73 1008.94 1009.11 1009.24 1009.33 1009.42 1009.51 1009.60 1009.73 1009.88 1010.06 1010.26 1010.48 1010.71 1010.94 1011.16 1011.36 1011.55 1011.71 1011.87 1012.00 1012.11 1012.21 1012.29 1012.35 1012.36 1012.34 1012.26 1012.12 1011.91
1003.63 1003.66 1003.78 1003.97 1004.25 1004.61 1005.02 1005.48 1005.98 1006.48 1006.97 1007.43 1007.82 1008.15 1008.41 1008.60 1008.74 1008.83 1008.91 1008.98 1009.08 1009.20 1009.35 1009.55 1009.77 1010.02 1010.27 1010.51 1010.75 1010.96 1011.15 1011.32 1011.47 1011.60 1011.71 1011.81 1011.89 1011.95 1011.97 1011.95 1011.88 1011.75 1011.54
1003.10 1003.00 1002.99 1003.07 1003.27 1003.57 1003.97 1004.44 1004.98 1005.55 1006.11 1006.65 1007.13 1007.53 1007.85 1008.09 1008.25 1008.36 1008.44 1008.52 1008.62 1008.75 1008.91 1009.13 1009.37 1009.64 1009.92 1010.20 1010.46 1010.69 1010.90 1011.07 1011.22 1011.35 1011.45 1011.53 1011.60 1011.64 1011.65 1011.62 1011.54 1011.40 1011.19
1002.67 1002.43 1002.29 1002.27 1002.37 1002.60 1002.96 1003.43 1003.98 1004.59 1005.22 1005.83 1006.38 1006.86 1007.24 1007.54 1007.75 1007.90 1008.01 1008.11 1008.22 1008.37 1008.56 1008.79 1009.06 1009.36 1009.68 1009.99 1010.28 1010.54 1010.77 1010.96 1011.12 1011.24 1011.34 1011.41 1011.45 1011.46 1011.44 1011.39 1011.29 1011.14 1010.92
1002.32 1001.96 1001.70 1001.57 1001.57 1001.72 1002.02 1002.46 1003.01 1003.64 1004.30 1004.96 1005.58 1006.13 1006.59 1006.96 1007.23 1007.44 1007.60 1007.74 1007.88 1008.05 1008.27 1008.52 1008.82 1009.15 1009.50 1009.85 1010.18 1010.48 1010.74 1010.96 1011.14 1011.27 1011.36 1011.42 1011.44 1011.43 1011.38 1011.30 1011.18 1011.01 1010.80
1002.03 1001.57 1001.21 1000.97 1000.87 1000.94 1001.17 1001.56 1002.08 1002.70 1003.39 1004.09 1004.76 1005.38 1005.91 1006.35 1006.71 1006.98 1007.20 1007.39 1007.58 1007.78 1008.02 1008.30 1008.62 1008.98 1009.35 1009.74 1010.11 1010.45 1010.76 1011.02 1011.23 1011.39 1011.49 1011.55 1011.56 1011.53 1011.47 1011.37 1011.23 1011.06 1010.86
1001.77 1001.23 1000.78 1000.45 1000.26 1000.25 1000.40 1000.73 1001.21 1001.81 1002.49 1003.22 1003.94 1004.62 1005.22 1005.75 1006.18 1006.53 1006.82 1007.07 1007.30 1007.53 1007.79 1008.09 1008.43 1008.80 1009.20 1009.61 1010.02 1010.41 1010.77 1011.08 1011.34 1011.54 1011.68 1011.76 1011.78 1011.75 1011.69 1011.58 1011.45 1011.28 1011.09
1001.50 1000.90 1000.38 999.97 999.71 999.61 999.69 999.95 1000.38 1000.95 1001.62 1002.36 1003.12 1003.86 1004.54 1005.14 1005.66 1006.10 1006.46 1006.76 1007.03 1007.30 1007.57 1007.88 1008.22 1008.60 1009.02 1009.45 1009.90 1010.33 1010.74 1011.11 1011.43 1011.68 1011.87 1011.99 1012.04 1012.04 1011.99 1011.90 1011.78 1011.63 1011.47
1001.18 1000.54 999.96 999.49 999.16 998.99 999.00 999.20 999.57 1000.10 1000.76 1001.51 1002.30 1003.09 1003.84 1004.53 1005.14 1005.66 1006.09 1006.46 1006.77 1007.07 1007.36 1007.67 1008.01 1008.39 1008.81 1009.26 1009.73 1010.20 1010.66 1011.09 1011.46 1011.78 1012.03 1012.20 1012.30 1012.34 1012.32 1012.26 1012.16 1012.05 1011.91
1000.79 1000.11 999.50 998.97 998.58 998.34 998.28 998.41 998.73 999.23 999.87 1000.63 1001.45 1002.30 1003.12 1003.90 1004.59 1005.20 1005.71 1006.15 1006.51 1006.84 1007.15 1007.46 1007.80 1008.18 1008.60 1009.06 1009.55 1010.05 1010.55 1011.02 1011.46 1011.83 1012.14 1012.36 1012.51 1012.60 1012.62 1012.59 1012.52 1012.43 1012.33
1000.33 999.62 998.97 998.39 997.93 997.63 997.50 997.57 997.84 998.30 998.92 999.68 1000.54 1001.44 1002.34 1003.20 1003.99 1004.69 1005.30 1005.80 1006.23 1006.60 1006.94 1007.27 1007.62 1008.00 1008.42 1008.89 1009.39 1009.92 1010.44 1010.95 1011.43 1011.85 1012.19 1012.47 1012.66 1012.77 1012.83 1012.83 1012.79 1012.72 1012.64
999.81 999.07 998.37 997.74 997.22 996.84 996.65 996.65 996.87 997.28 997.89 998.66 999.55 1000.50 1001.47 1002.42 1003.31 1004.12 1004.82 1005.42 1005.93 1006.36 1006.75 1007.12 1007.49 1007.89 1008.33 1008.80 1009.31 1009.85 1010.39 1010.92 1011.41 1011.85 1012.22 1012.51 1012.72 1012.85 1012.92 1012.94 1012.92 1012.87 1012.80
999.26 998.48 997.73 997.04 996.45 996.01 995.74 995.68 995.84 996.22 996.80 997.57 998.48 999.48 1000.53 1001.56 1002.55 1003.47 1004.28 1004.99 1005.60 1006.12 1006.59 1007.02 1007.44 1007.87 1008.33 1008.82 1009.34 1009.88 1010.41 1010.94 1011.42 1011.85 1012.21 1012.50 1012.70 1012.83 1012.90 1012.91 1012.90 1012.85 1012.79
998.74 997.92 997.12 996.37 995.71 995.20 994.86 994.73 994.83 995.16 995.72 996.47 997.40 998.44 999.55 1000.66 1001.75 1002.77 1003.70 1004.53 1005.26 1005.89 1006.45 1006.97 1007.46 1007.95 1008.44 1008.95 1009.48 1010.01 1010.53 1011.03 1011.48 1011.88 1012.20 1012.45 1012.63 1012.73 1012.78 1012.78 1012.75 1012.71 1012.65
998.29 997.44 996.60 995.80 995.09 994.51 994.10 993.91 993.95 994.23 994.75 995.49 996.42 997.48 998.63 999.81 1000.98 1002.10 1003.14 1004.09 1004.93 1005.68 1006.36 1006.97 1007.55 1008.10 1008.64 1009.18 1009.71 1010.23 1010.72 1011.18 1011.58 1011.92 1012.19 1012.39 1012.51 1012.58 1012.60 1012.58 1012.54 1012.49 1012.43
997.97 997.11 996.25 995.43 994.67 994.05 993.59 993.34 993.33 993.56 994.04 994.75 995.66 996.72 997.89 999.11 1000.34 1001.53 1002.67 1003.71 1004.67 1005.53 1006.31 1007.02 1007.68 1008.30 1008.88 1009.44 1009.98 1010.48 1010.94 1011.35 1011.69 1011.97 1012.18 1012.31 1012.39 1012.41 1012.40 1012.36 1012.31 1012.26 1012.21
997.82 996.99 996.14 995.32 994.56 993.92 993.43 993.15 993.10 993.29 993.72 994.38 995.26 996.30 997.45 998.68 999.93 1001.16 1002.35 1003.47 1004.51 1005.45 1006.31 1007.11 1007.83 1008.50 1009.12 1009.70 1010.23 1010.71 1011.13 1011.49 1011.78 1011.99 1012.14 1012.22 1012.25 1012.24 1012.20 1012.15 1012.10 1012.05 1012.01
Thickness
5730 5727 5724 5720 5717 5713 5710 5706 5703 5700 5697 5694 5691 5687 5684 5681 5679 5676 5674 5673 5671 5669 5669 5668 5667 5668 5668 5669 5670 5671 5672 5673 5672 5676 5682 5686 5690 5692 5696 5698 5701 5703 5705
5731 5727 5723 5720 5716 5712 5709 5707 5704 5701 5698 5695 5691 5688 5685 5682 5679 5676 5674 5672 5670 5669 5668 5667 5666 5667 5666 5666 5667 5668 5669 5670 5671 5671 5675 5680 5683 5687 5689 5692 5694 5697 5699
5730 5726 5722 5718 5715 5712 5709 5707 5704 5701 5698 5695 5692 5688 5686 5683 5680 5677 5675 5673 5671 5669 5668 5666 5665 5664 5663 5664 5664 5665 5666 5668 5668 5668 5669 5673 5677 5680 5682 5685 5687 5689 5692
5729 5725 5721 5718 5715 5713 5710 5707 5704 5701 5698 5694 5692 5689 5687 5684 5681 5679 5676 5673 5671 5669 5668 5666 5665 5664 5663 5662 5662 5662 5663 5663 5663 5664 5665 5667 5670 5673 5675 5675 5676 5680 5683
5727 5724 5721 5719 5716 5713 5709 5706 5704 5701 5698 5695 5692 5689 5687 5685 5683 5679 5677 5674 5671 5669 5667 5665 5665 5664 5664 5662 5661 5660 5659 5658 5659 5659 5660 5661 5663 5665 5666 5667 5668 5671 5675
5727 5724 5722 5718 5714 5711 5708 5705 5702 5699 5697 5694 5691 5689 5686 5686 5685 5682 5678 5674 5671 5668 5666 5665 5664 5664 5663 5663 5662 5661 5659 5657 5655 5655 5655 5656 5658 5660 5661 5662 5661 5662 5664
5727 5724 5720 5717 5713 5710 5708 5704 5700 5698 5695 5693 5690 5688 5685 5685 5684 5682 5679 5675 5671 5668 5666 5664 5664 5664 5662 5660 5660 5660 5658 5658 5657 5655 5654 5654 5655 5657 5657 5656 5655 5655 5657
5725 5722 5719 5715 5712 5709 5705 5702 5699 5697 5694 5691 5689 5687 5685 5684 5684 5682 5679 5675 5671 5669 5667 5665 5662 5662 5661 5659 5657 5655 5655 5655 5655 5655 5654 5654 5655 5655 5654 5653 5652 5652 5653
5722 5720 5718 5714 5710 5706 5703 5701 5698 5695 5692 5690 5688 5686 5683 5683 5683 5681 5678 5673 5670 5669 5667 5665 5663 5661 5661 5659 5655 5653 5651 5652 5653 5653 5653 5652 5652 5652 5651 5648 5646 5645 5646
5720 5719 5717 5714 5709 5706 5703 5700 5697 5694 5691 5689 5686 5684 5682 5681 5681 5680 5677 5671 5668 5667 5665 5664 5663 5662 5661 5658 5654 5651 5649 5648 5648 5648 5647 5647 5647 5646 5646 5644 5642 5640 5639
5719 5717 5714 5712 5709 5706 5702 5698 5695 5692 5688 5685 5683 5681 5680 5679 5679 5678 5676 5670 5667 5665 5662 5661 5660 5660 5659 5656 5653 5650 5648 5646 5644 5642 5641 5640 5640 5639 5639 5639 5638 5636 5634
5712 5711 5710 5708 5706 5703 5698 5694 5691 5688 5683 5680 5678 5676 5675 5675 5675 5675 5674 5670 5667 5663 5660 5659 5657 5657 5655 5653 5651 5649 5646 5643 5639 5637 5635 5633 5632 5632 5632 5632 5632 5631 5630
5703 5703 5704 5703 5701 5699 5695 5690 5686 5683 5680 5677 5674 5672 5670 5670 5670 5671 5670 5668 5665 5660 5658 5656 5654 5653 5651 5648 5647 5644 5641 5637 5634 5631 5628 5627 5626 5625 5625 5625 5625 5624 5624
5693 5695 5696 5695 5693 5692 5690 5687 5683 5680 5676 5674 5671 5669 5666 5664 5663 5664 5663 5661 5659 5656 5653 5651 5649 5647 5644 5642 5640 5637 5634 5632 5629 5626 5623 5620 5619 5618 5617 5616 5615 5615 5613
5682 5684 5685 5686 5686 5684 5683 5682 5681 5681 5679 5675 5671 5668 5663 5660 5661 5661 5658 5655 5653 5650 5647 5643 5640 5638 5635 5633 5631 5629 5626 5624 5621 5618 5616 5613 5612 5610 5608 5608 5606 5605 5602
5668 5671 5674 5675 5675 5675 5673 5669 5671 5673 5673 5673 5671 5667 5664 5663 5659 5656 5654 5652 5649 5646 5641 5637 5634 5631 5629 5626 5623 5621 5618 5616 5614 5611 5608 5606 5603 5602 5600 5598 5596 5594 5592
5655 5659 5662 5664 5665 5665 5664 5663 5659 5658 5660 5662 5662 5660 5659 5656 5653 5650 5648 5645 5642 5639 5634 5631 5628 5625 5622 5619 5617 5614 5611 5608 5606 5604 5601 5598 5595 5593 5591 5588 5586 5584 5583
5641 5646 5650 5653 5655 5657 5658 5658 5657 5654 5649 5647 5649 5650 5649 5648 5645 5642 5639 5636 5631 5630 5628 5625 5622 5619 5616 5613 5610 5607 5603 5600 5598 5595 5592 5589 5586 5584 5581 5578 5575 5574 5572
5624 5630 5636 5641 5644 5647 5649 5649 5649 5648 5646 5642 5637 5637 5638 5637 5635 5633 5631 5628 5626 5623 5620 5618 5616 5613 5610 5606 5603 5599 5596 5593 5589 5586 5583 5580 5577 5574 5570 5568 5565 5564 5562
5609 5616 5622 5626 5631 5634 5637 5639 5639 5639 5638 5635 5634 5632 5628 5624 5622 5622 5622 5621 5619 5617 5614 5611 5609 5606 5603 5599 5595 5591 5587 5584 5580 5576 5573 5570 5567 5564 5560 5557 5555 5552 5550
5593 5601 5607 5613 5619 5624 5628 5631 5632 5632 5632 5631 5630 5628 5626 5623 5621 5618 5615 5614 5612 5610 5607 5604 5601 5598 5595 5591 5587 5583 5579 5575 5571 5567 5563 5560 5557 5553 5550 5547 5544 5542 5540
5577 5584 5591 5598 5606 5612 5618 5623 5624 5625 5626 5624 5621 5618 5616 5615 5613 5611 5609 5607 5605 5603 5601 5597 5593 5590 5587 5584 5580 5575 5571 5566 5561 5557 5553 5550 5546 5543 5540 5537 5534 5531 5529
5562 5569 5577 5584 5592 5600 5606 5612 5615 5617 5618 5616 5613 5610 5608 5606 5606 5604 5602 5599 5596 5594 5591 5588 5585 5581 5578 5575 5572 5568 5563 5558 5553 5549 5544 5540 5536 5533 5530 5527 5524 5521 5519
5547 5554 5561 5570 5577 5586 5594 5600 5605 5607 5608 5608 5606 5604 5603 5601 5599 5596 5593 5590 5587 5584 5582 5579 5576 5572 5568 5564 5560 5557 5553 5549 5544 5540 5536 5531 5527 5523 5520 5517 5514 5512 5509
5532 5540 5547 5555 5563 5572 5581 5588 5593 5596 5598 5598 5598 5597 5595 5592 5590 5587 5584 5580 5577 5574 5571 5568 5565 5561 5558 5554 5549 5546 5542 5538 5534 5529 5525 5521 5517 5514 5510 5507 5504 5501 5498
5520 5527 5534 5541 5549 5558 5567 5575 5580 5584 5587 5588 5588 5587 5585 5583 5581 5577 5574 5570 5566 5563 5560 5557 5554 5550 5547 5542 5539 5535 5531 5527 5523 5519 5515 5511 5507 5503 5500 5496 5494 5491 5488